TimeEDT,TemperatureF,Dew PointF,Humidity,Sea Level PressureIn,VisibilityMPH,Wind Direction,Wind SpeedMPH,Gust SpeedMPH,PrecipitationIn,Events,Conditions,WindDirDegrees,DateUTC
12:56 AM,68.0,61.0,78,29.88,10.0,Calm,Calm,-,N/A,,Clear,0,2013-06-18 04:56:00
1:56 AM,68.0,63.0,84,29.88,10.0,Calm,Calm,-,N/A,,Clear,0,2013-06-18 05:56:00
2:56 AM,64.0,61.0,90,29.87,9.0,North,3.5,-,N/A,,Clear,10,2013-06-18 06:56:00
3:56 AM,64.0,61.0,90,29.86,8.0,Calm,Calm,-,N/A,,Partly Cloudy,0,2013-06-18 07:56:00
4:10 AM,64.4,60.8,88,29.87,9.0,ENE,3.5,-,N/A,,Mostly Cloudy,60,2013-06-18 08:10:00
4:23 AM,64.4,62.6,94,29.87,9.0,Calm,Calm,-,N/A,,Overcast,0,2013-06-18 08:23:00
4:56 AM,66.0,64.0,93,29.87,3.0,Calm,Calm,-,N/A,,Overcast,0,2013-06-18 08:56:00
5:01 AM,66.2,64.4,94,29.87,1.8,SE,4.6,-,N/A,,Overcast,140,2013-06-18 09:01:00
5:28 AM,66.2,64.4,94,29.88,3.0,Variable,3.5,-,N/A,,Overcast,0,2013-06-18 09:28:00
5:38 AM,66.2,64.4,94,29.87,2.5,Calm,Calm,-,N/A,,Overcast,0,2013-06-18 09:38:00
5:47 AM,66.2,64.4,94,29.87,3.0,Calm,Calm,-,N/A,,Overcast,0,2013-06-18 09:47:00
5:56 AM,66.0,64.9,96,29.88,1.5,Calm,Calm,-,N/A,,Mostly Cloudy,0,2013-06-18 09:56:00
6:18 AM,66.2,64.4,94,29.88,0.5,Calm,Calm,-,N/A,Fog,Fog,0,2013-06-18 10:18:00
6:56 AM,66.0,64.9,96,29.88,0.2,Calm,Calm,-,N/A,Fog,Fog,0,2013-06-18 10:56:00
7:21 AM,66.2,64.4,94,29.89,0.5,Calm,Calm,-,N/A,Fog,Fog,0,2013-06-18 11:21:00
7:56 AM,69.1,64.9,87,29.89,2.0,East,3.5,-,N/A,,Mostly Cloudy,90,2013-06-18 11:56:00
8:18 AM,69.8,64.4,83,29.89,4.0,ESE,3.5,-,N/A,,Haze,110,2013-06-18 12:18:00
8:56 AM,73.0,66.0,79,29.90,6.0,SSE,3.5,-,N/A,,Haze,150,2013-06-18 12:56:00
9:56 AM,75.9,66.0,71,29.88,10.0,SE,5.8,-,N/A,,Mostly Cloudy,140,2013-06-18 13:56:00
10:56 AM,77.0,64.9,66,29.87,10.0,South,5.8,-,N/A,,Mostly Cloudy,170,2013-06-18 14:56:00
11:56 AM,77.0,64.9,66,29.87,10.0,South,8.1,-,N/A,,Mostly Cloudy,180,2013-06-18 15:56:00
12:56 PM,78.1,64.0,62,29.85,10.0,South,9.2,-,N/A,,Mostly Cloudy,180,2013-06-18 16:56:00
1:56 PM,77.0,64.9,66,29.84,10.0,South,9.2,-,N/A,,Mostly Cloudy,170,2013-06-18 17:56:00
2:56 PM,75.0,64.0,69,29.82,10.0,South,6.9,-,N/A,,Overcast,180,2013-06-18 18:56:00
3:56 PM,73.0,64.0,73,29.82,10.0,South,8.1,-,N/A,,Overcast,190,2013-06-18 19:56:00
4:33 PM,71.6,64.4,78,29.84,8.0,WSW,6.9,-,N/A,,Overcast,240,2013-06-18 20:33:00
4:56 PM,72.0,66.0,81,29.82,7.0,SW,4.6,-,0.00,Rain,Light Rain,220,2013-06-18 20:56:00
5:56 PM,71.1,66.9,87,29.83,6.0,WSW,5.8,-,0.01,Rain,Light Rain,250,2013-06-18 21:56:00
6:19 PM,71.6,66.2,83,29.84,2.0,NW,8.1,-,0.01,Rain,Light Rain,320,2013-06-18 22:19:00
6:56 PM,68.0,64.9,90,29.86,2.0,North,9.2,19.6,0.02,Rain,Light Rain,10,2013-06-18 22:56:00
7:56 PM,66.9,64.0,90,29.86,3.0,ENE,6.9,-,0.08,Rain,Light Rain,60,2013-06-18 23:56:00
8:56 PM,66.0,64.0,93,29.83,4.0,East,8.1,-,0.05,Rain,Light Rain,90,2013-06-19 00:56:00
9:56 PM,66.0,64.0,93,29.84,4.0,ENE,6.9,-,0.01,Rain,Light Rain,60,2013-06-19 01:56:00
10:40 PM,66.2,62.6,88,29.84,4.0,NE,9.2,-,0.02,Rain,Light Rain,50,2013-06-19 02:40:00
10:56 PM,64.9,62.1,90,29.84,4.0,NE,12.7,-,0.02,,Overcast,40,2013-06-19 02:56:00
11:56 PM,62.1,59.0,90,29.86,8.0,NE,13.8,-,N/A,,Overcast,40,2013-06-19 03:56:00